Zurück zum Katalog

BREEZE-KM DEB

AktivPO
NORAD 41720·DEBRIS·🇷🇺 Russia

Gestartet Mar 31, 2015 von Plesetsk Cosmodrome

Loading…

Nächste Überflüge (nächste 24 Stunden)

TLE

AktuellSource: Space-Track

Epoche: Sep 14, 2026, 06:17 UTC

1 41720U 15020H   26257.26225829  .00000053  00000-0  13612-3 0  9994
2 41720  82.4832  93.0658 0230147  27.6630 333.6502 12.91007639530227

Verfolge BREEZE-KM DEB in Echtzeit mit AllMySat

Download on the App Store